Regional Weather Roundup
Issued by NWS Jackson, KY

Home | Current Version | Previous Version | Text Only | Print | Product List | Glossary Off
Versions: 1 2 3 4 5 6 7 8 9 10 11 12 13 14 15 16 17 18 19 20 21 22 23 24 25 26 27 28 29 30 31 32 33 34 35 36 37 38 39 40 41 42 43 44 45 46 47 48 49 50

000
ASUS43 KJKL 050810
RWRJKL

EAST KENTUCKY HOURLY WEATHER ROUNDUP
NATIONAL WEATHER SERVICE JACKSON KY
400 AM EDT TUE MAY 05 2015

NOTE: "FAIR" INDICATES FEW OR NO CLOUDS BELOW 12,000 FEET WITH
NO SIGNIFICANT WEATHER AND/OR OBSTRUCTIONS TO VISIBILITY.

* THESE REPORTS ARE NOT UNDER NWS QUALITY CONTROL AND MAY NOT
  REPORT WEATHER SUCH AS PRECIPITATION AND FOG.

KYZ079-080-083-085-087-088-110-112-115-119-120-050900
...EASTERN KENTUCKY...

CITY           SKY/WX    TMP DP  RH WIND       PRES   REMARKS
JACKSON        CLEAR     63  49  60 CALM      30.26S
LONDON         PTCLDY    58  51  78 CALM      30.27R
SOMERSET*      CLEAR     54  54 100 CALM      30.28R
MONTICELLO*    CLEAR     54  53  96 CALM      30.29S
MIDDLESBORO*   CLEAR     51  50  98 CALM      30.30S
HARLAN APT*    SUNNY     52  52 100 E8        30.30S
HAZARD APT*    SUNNY     63  50  63 CALM      30.27S
BLACK MTN*       N/A     59  46  63 S7          N/A
PIKEVILLE APT* CLEAR     63  50  63 S3        30.26S
BIG SANDY*     CLOUDY    63  53  70 CALM      30.26S
MOREHEAD APT*  LGT RAIN  61  54  77 CALM      30.26S
$$

KYZ035-036-041-042-044-050-067-078-099-050900
...CENTRAL KENTUCKY...

CITY           SKY/WX    TMP DP  RH WIND       PRES   REMARKS
MT STERLING*   CLEAR     63  52  67 SW5       30.25S
FLEMING/MASON* CLOUDY    64  55  72 SW3       30.24R
DANVILLE*      CLEAR     59  52  77 S3        30.26S
RICHMOND*      CLEAR     64  50  59 S8        30.24S
LEXINGTON      CLEAR     62  54  74 S7        30.24S
FRANKFORT      CLEAR     59  53  80 CALM      30.22R
$$

KYZ091>093-OHZ055-061-077-WVZ005-015-034-035-042-050900
...SOUTHERN OHIO/WEST VIRGINIA...

CITY           SKY/WX    TMP DP  RH WIND       PRES   REMARKS
COVINGTON      MOCLDY    63  57  81 SE3       30.22S
COLUMBUS       LGT RAIN  62  61  96 CALM      30.22R FOG
DAYTON         CLOUDY    63  60  90 NW9       30.23R
WILMINGTON     MOCLDY    58  56  93 SE3       30.23R
HUNTINGTON     MOCLDY    60  53  77 CALM      30.22S
CHARLESTON     PTCLDY    61  53  75 MISG      30.23S
PINEVILLE*     PTCLDY    52  52  99 MISG      30.34R
BECKLEY        CLEAR     60  45  57 S6        30.30S
BLUEFIELD      CLEAR     62  44  51 W6        30.33F
$$

VAZ002-007-008-TNZ017-027-036-066-071-050900
...SOUTHWEST VIRGINIA/EAST TENNESSEE...

CITY           SKY/WX    TMP DP  RH WIND       PRES   REMARKS
WISE*          CLEAR     59  41  51 CALM      30.34R
JONESVILLE*    PTSUNNY   48  48 100 CALM      30.32S
ABINGDON*      CLEAR     55  49  83 CALM      30.32S
BRISTOL        CLEAR     53  51  93 CALM      30.30S
KNOXVILLE      PTCLDY    60  51  72 N3        30.27S
OAK RIDGE      CLEAR     56  52  86 CALM      30.30R
CROSSVILLE     CLEAR     55  49  80 CALM      30.30S
NASHVILLE      PTCLDY    60  53  77 CALM      30.24S
$$

...KEY TO REMARKS...
VSB - VISIBILITY IN MILES
WCI - WIND CHILL INDEX
HX  - HEAT INDEX

$$


USA.gov is the U.S. government's official web portal to all federal, state and local government web resources and services.